Regional Weather Roundup
Issued by NWS Cleveland, OH

Home | Current Version | Previous Version | Graphics & Text | Print | Product List | Glossary On
Versions: 1 2 3 4 5 6 7 8 9 10 11 12 13 14 15 16 17 18 19 20 21 22 23 24 25 26 27 28 29 30 31 32 33 34 35 36 37 38 39 40 41 42 43 44 45 46 47 48 49 50
000
ASUS41 KCLE 300000
RWRCLE
OHIO REGIONAL WEATHER ROUNDUP
NATIONAL WEATHER SERVICE WILMINGTON, OH
800 PM EDT MON MAY 29 2017

NOTE: "FAIR" INDICATES FEW OR NO CLOUDS BELOW 12,000 FEET WITH NO
SIGNIFICANT WEATHER AND/OR OBSTRUCTIONS TO VISIBILITY.

OHZ001>008-015>018-024>027-034-035-043-044-300100-
   NORTHWEST OHIO

CITY           SKY/WX    TMP DP  RH WIND       PRES   REMARKS
DEFIANCE       FAIR      70  56  61 S8        29.84S
FINDLAY        FAIR      75  47  36 W9        29.85S
TOLEDO EXPRESS FAIR      66  59  78 S6        29.83F
TOLEDO EXEC    FAIR      70  54  56 SW9       29.85S
LIMA           FAIR      75  51  43 W7        29.87S
$$

OHZ009>014-019>023-028>033-038-089-300100-
   NORTHEAST OHIO

CITY           SKY/WX    TMP DP  RH WIND       PRES   REMARKS
CLE-HOPKINS    FAIR      76  52  43 S8        29.88R
CLE-LAKEFRONT  FAIR      69  54  58 SW9       29.85R
CUY CO. ARPT   PTCLDY    75  54  46 SW10      29.88R
LORAIN-ELYRIA  FAIR      74  51  44 W7        29.87R
ASHTABULA      FAIR      68  63  84 CALM      29.90R
AKRON-CANTON   FAIR      70  54  56 S12       29.91S
WOOSTER        NOT AVBL
MANSFIELD      FAIR      72  56  57 SW9       29.90R
YOUNGSTOWN     FAIR      70  52  52 S9        29.91S
$$

OHZ042-051>053-060>062-070>072-077>081-300100-
  SOUTHWEST OHIO

CITY           SKY/WX    TMP DP  RH WIND       PRES   REMARKS
CINC-COVINGTON MOCLDY    77  52  41 SW6       29.92S
CINC-LUNKEN    FAIR      76  55  48 SW10      29.91S
HAMILTON       FAIR      78  55  44 SW8       29.91S
DAYTON         NOT AVBL
WRIGHT-PAT AFB FAIR      76  58  54 S6        29.90S
DAYTON GENERAL FAIR      76  52  43 SW7       29.90S
WILMINGTON     MOCLDY    73  56  54 SW8       29.92R
$$

OHZ036-037-039>041-045>050-054>059-063>069-073>076-082>088-300100-
  CENTRAL AND SOUTHEAST OHIO

CITY           SKY/WX    TMP DP  RH WIND       PRES   REMARKS
COLUMBUS       MOCLDY    77  53  43 SW9       29.90R
OSU AIRPORT    FAIR      76  53  44 SW9       29.90R
BOLTON FIELD   NOT AVBL
RICKENBACK AFB NOT AVBL
NEWARK         FAIR      74  53  48 SW7       29.91R
MARION         FAIR      73  54  51 SW10      29.89R
LANCASTER      FAIR      76  52  43 SW6       29.92S
ZANESVILLE     FAIR      75  55  49 S3        29.92R
NEW PHILLY     FAIR      66  62  87 SE7       29.93S
$$



USA.gov is the U.S. government's official web portal to all federal, state and local government web resources and services.